Location: Góry Miechowskie
(50.3599°N, 20.1803°E)
Time: 03:24:26
(UTC+00:00)

Resurs 1-4 Rocket - Pass Details

Date: 21 September 2024
Orbit: 798 x 813 km, 98.8° (Epoch: 14 October)

Event Time Altitude Azimuth Distance (km) Brightness Sun altitude
Rises 00:03:19 0° 21° (NNE) 3,319 6.3 -35.5°
Reaches altitude 10° 00:05:52 10° 31° (NNE) 2,383 5.3 -35.3°
Enters shadow 00:09:21 30° 66° (ENE) 1,394 3.6 -35.0°
